Retour au catalogue

QIANFAN-233

ActifCommunicationsPO
NORAD 69862·PAYLOAD·🇨🇳 China

Lancé Jul 5, 2026 depuis Wenchang Space Launch Site

Loading…

Prochains Passages (prochaines 24 heures)

TLE

FraisSource: Space-Track

Époque: Sep 14, 2026, 11:56 UTC

1 69862U 26155Q   26257.49759072 -.01810935  00000-0 -28502+1 0  9991
2 69862  89.0076  54.2929 0035268  31.6617 328.6648 13.54054928  9931

Suivez QIANFAN-233 en temps réel avec AllMySat

Download on the App Store